Year,Month,Day,Hour,Minute,Value (Times are PST for insolation in W/m^2)
2010,08,25,00,00,0.00
2010,08,25,00,01,0.00
2010,08,25,00,02,0.00
2010,08,25,00,03,0.00
2010,08,25,00,04,0.00
2010,08,25,00,05,0.00
2010,08,25,00,06,0.00
2010,08,25,00,07,0.00
2010,08,25,00,08,0.00
2010,08,25,00,09,0.00
2010,08,25,00,10,0.00
2010,08,25,00,11,0.00
2010,08,25,00,12,0.00
2010,08,25,00,13,0.00
2010,08,25,00,14,0.00
2010,08,25,00,15,0.00
2010,08,25,00,16,0.00
2010,08,25,00,17,0.00
2010,08,25,00,18,0.00
2010,08,25,00,19,0.00
2010,08,25,00,20,0.00
2010,08,25,00,21,0.00
2010,08,25,00,22,0.00
2010,08,25,00,23,0.00
2010,08,25,00,24,0.00
2010,08,25,00,25,0.00
2010,08,25,00,26,0.00
2010,08,25,00,27,0.00
2010,08,25,00,28,0.00
2010,08,25,00,29,0.00
2010,08,25,00,30,0.00
2010,08,25,00,31,0.00
2010,08,25,00,32,0.00
2010,08,25,00,33,0.00
2010,08,25,00,34,0.00
2010,08,25,00,35,0.00
2010,08,25,00,36,0.00
2010,08,25,00,37,0.00
2010,08,25,00,38,0.00
2010,08,25,00,39,0.00
2010,08,25,00,40,0.00
2010,08,25,00,41,0.00
2010,08,25,00,42,0.00
2010,08,25,00,43,0.00
2010,08,25,00,44,0.00
2010,08,25,00,45,0.00
2010,08,25,00,46,0.00
2010,08,25,00,47,0.00
2010,08,25,00,48,0.00
2010,08,25,00,49,0.00
2010,08,25,00,50,0.00
2010,08,25,00,51,0.00
2010,08,25,00,52,0.00
2010,08,25,00,53,0.00
2010,08,25,00,54,0.00
2010,08,25,00,55,0.00
2010,08,25,00,56,0.00
2010,08,25,00,57,0.00
2010,08,25,00,58,0.00
2010,08,25,00,59,0.00
2010,08,25,01,00,0.00
2010,08,25,01,01,0.00
2010,08,25,01,02,0.00
2010,08,25,01,03,0.00
2010,08,25,01,04,0.00
2010,08,25,01,05,0.00
2010,08,25,01,06,0.00
2010,08,25,01,07,0.00
2010,08,25,01,08,0.00
2010,08,25,01,09,0.00
2010,08,25,01,10,0.00
2010,08,25,01,11,0.00
2010,08,25,01,12,0.00
2010,08,25,01,13,0.00
2010,08,25,01,14,0.00
2010,08,25,01,15,0.00
2010,08,25,01,16,0.00
2010,08,25,01,17,0.00
2010,08,25,01,18,0.00
2010,08,25,01,19,0.00
2010,08,25,01,20,0.00
2010,08,25,01,21,0.00
2010,08,25,01,22,0.00
2010,08,25,01,23,0.00
2010,08,25,01,24,0.00
2010,08,25,01,25,0.00
2010,08,25,01,26,0.00
2010,08,25,01,27,0.00
2010,08,25,01,28,0.00
2010,08,25,01,29,0.00
2010,08,25,01,30,0.00
2010,08,25,01,31,0.00
2010,08,25,01,32,0.00
2010,08,25,01,33,0.00
2010,08,25,01,34,0.00
2010,08,25,01,35,0.00
2010,08,25,01,36,0.00
2010,08,25,01,37,0.00
2010,08,25,01,38,0.00
2010,08,25,01,39,0.00
2010,08,25,01,40,0.00
2010,08,25,01,41,0.00
2010,08,25,01,42,0.00
2010,08,25,01,43,0.00
2010,08,25,01,44,0.00
2010,08,25,01,45,0.00
2010,08,25,01,46,0.00
2010,08,25,01,47,0.00
2010,08,25,01,48,0.00
2010,08,25,01,49,0.00
2010,08,25,01,50,0.00
2010,08,25,01,51,0.00
2010,08,25,01,52,0.00
2010,08,25,01,53,0.00
2010,08,25,01,54,0.00
2010,08,25,01,55,0.00
2010,08,25,01,56,0.00
2010,08,25,01,57,0.00
2010,08,25,01,58,0.00
2010,08,25,01,59,0.00
2010,08,25,02,00,0.00
2010,08,25,02,01,0.00
2010,08,25,02,02,0.00
2010,08,25,02,03,0.00
2010,08,25,02,04,0.00
2010,08,25,02,05,0.00
2010,08,25,02,06,0.00
2010,08,25,02,07,0.00
2010,08,25,02,08,0.00
2010,08,25,02,09,0.00
2010,08,25,02,10,0.00
2010,08,25,02,11,0.00
2010,08,25,02,12,0.00
2010,08,25,02,13,0.00
2010,08,25,02,14,0.00
2010,08,25,02,15,0.00
2010,08,25,02,16,0.00
2010,08,25,02,17,0.00
2010,08,25,02,18,0.00
2010,08,25,02,19,0.00
2010,08,25,02,20,0.00
2010,08,25,02,21,0.00
2010,08,25,02,22,0.00
2010,08,25,02,23,0.00
2010,08,25,02,24,0.00
2010,08,25,02,25,0.00
2010,08,25,02,26,0.00
2010,08,25,02,27,0.00
2010,08,25,02,28,0.00
2010,08,25,02,29,0.00
2010,08,25,02,30,0.00
2010,08,25,02,31,0.00
2010,08,25,02,32,0.00
2010,08,25,02,33,0.00
2010,08,25,02,34,0.00
2010,08,25,02,35,0.00
2010,08,25,02,36,0.00
2010,08,25,02,37,0.00
2010,08,25,02,38,0.00
2010,08,25,02,39,0.00
2010,08,25,02,40,0.00
2010,08,25,02,41,0.00
2010,08,25,02,42,0.00
2010,08,25,02,43,0.00
2010,08,25,02,44,0.00
2010,08,25,02,45,0.00
2010,08,25,02,46,0.00
2010,08,25,02,47,0.00
2010,08,25,02,48,0.00
2010,08,25,02,49,0.00
2010,08,25,02,50,0.00
2010,08,25,02,51,0.00
2010,08,25,02,52,0.00
2010,08,25,02,53,0.00
2010,08,25,02,54,0.00
2010,08,25,02,55,0.00
2010,08,25,02,56,0.00
2010,08,25,02,57,0.00
2010,08,25,02,58,0.00
2010,08,25,02,59,0.00
2010,08,25,03,00,0.00
2010,08,25,03,01,0.00
2010,08,25,03,02,0.00
2010,08,25,03,03,0.00
2010,08,25,03,04,0.00
2010,08,25,03,05,0.00
2010,08,25,03,06,0.00
2010,08,25,03,07,0.00
2010,08,25,03,08,0.00
2010,08,25,03,09,0.00
2010,08,25,03,10,0.00
2010,08,25,03,11,0.00
2010,08,25,03,12,0.00
2010,08,25,03,13,0.00
2010,08,25,03,14,0.00
2010,08,25,03,15,0.00
2010,08,25,03,16,0.00
2010,08,25,03,17,0.00
2010,08,25,03,18,0.00
2010,08,25,03,19,0.00
2010,08,25,03,20,0.00
2010,08,25,03,21,0.00
2010,08,25,03,22,0.00
2010,08,25,03,23,0.00
2010,08,25,03,24,0.00
2010,08,25,03,25,0.00
2010,08,25,03,26,0.00
2010,08,25,03,27,0.00
2010,08,25,03,28,0.00
2010,08,25,03,29,0.00
2010,08,25,03,30,0.00
2010,08,25,03,31,0.00
2010,08,25,03,32,0.00
2010,08,25,03,33,0.00
2010,08,25,03,34,0.00
2010,08,25,03,35,0.00
2010,08,25,03,36,0.00
2010,08,25,03,37,0.00
2010,08,25,03,38,0.00
2010,08,25,03,39,0.00
2010,08,25,03,40,0.00
2010,08,25,03,41,0.00
2010,08,25,03,42,0.00
2010,08,25,03,43,0.00
2010,08,25,03,44,0.00
2010,08,25,03,45,0.00
2010,08,25,03,46,0.00
2010,08,25,03,47,0.00
2010,08,25,03,48,0.00
2010,08,25,03,49,0.00
2010,08,25,03,50,0.00
2010,08,25,03,51,0.00
2010,08,25,03,52,0.00
2010,08,25,03,53,0.00
2010,08,25,03,54,0.00
2010,08,25,03,55,0.00
2010,08,25,03,56,0.00
2010,08,25,03,57,0.00
2010,08,25,03,58,0.00
2010,08,25,03,59,0.00
2010,08,25,04,00,0.00
2010,08,25,04,01,0.00
2010,08,25,04,02,0.00
2010,08,25,04,03,0.00
2010,08,25,04,04,0.00
2010,08,25,04,05,0.00
2010,08,25,04,06,0.00
2010,08,25,04,07,0.00
2010,08,25,04,08,0.00
2010,08,25,04,09,0.00
2010,08,25,04,10,0.00
2010,08,25,04,11,0.00
2010,08,25,04,12,0.00
2010,08,25,04,13,0.00
2010,08,25,04,14,0.00
2010,08,25,04,15,0.00
2010,08,25,04,16,0.00
2010,08,25,04,17,0.00
2010,08,25,04,18,0.00
2010,08,25,04,19,0.00
2010,08,25,04,20,0.00
2010,08,25,04,21,0.00
2010,08,25,04,22,0.00
2010,08,25,04,23,0.00
2010,08,25,04,24,0.00
2010,08,25,04,25,0.00
2010,08,25,04,26,0.00
2010,08,25,04,27,0.00
2010,08,25,04,28,0.00
2010,08,25,04,29,0.00
2010,08,25,04,30,0.00
2010,08,25,04,31,0.00
2010,08,25,04,32,0.00
2010,08,25,04,33,0.00
2010,08,25,04,34,0.00
2010,08,25,04,35,0.00
2010,08,25,04,36,0.00
2010,08,25,04,37,0.00
2010,08,25,04,38,0.00
2010,08,25,04,39,0.00
2010,08,25,04,40,0.00
2010,08,25,04,41,0.00
2010,08,25,04,42,0.00
2010,08,25,04,43,0.00
2010,08,25,04,44,0.00
2010,08,25,04,45,0.00
2010,08,25,04,46,0.00
2010,08,25,04,47,0.00
2010,08,25,04,48,0.00
2010,08,25,04,49,0.00
2010,08,25,04,50,0.00
2010,08,25,04,51,0.00
2010,08,25,04,52,0.00
2010,08,25,04,53,0.00
2010,08,25,04,54,0.00
2010,08,25,04,55,0.00
2010,08,25,04,56,0.00
2010,08,25,04,57,0.00
2010,08,25,04,58,0.00
2010,08,25,04,59,0.00
2010,08,25,05,00,0.00
2010,08,25,05,01,0.00
2010,08,25,05,02,0.00
2010,08,25,05,03,0.00
2010,08,25,05,04,0.00
2010,08,25,05,05,0.00
2010,08,25,05,06,0.00
2010,08,25,05,07,0.00
2010,08,25,05,08,0.00
2010,08,25,05,09,0.00
2010,08,25,05,10,0.00
2010,08,25,05,11,0.00
2010,08,25,05,12,0.00
2010,08,25,05,13,0.00
2010,08,25,05,14,0.00
2010,08,25,05,15,0.00
2010,08,25,05,16,0.00
2010,08,25,05,17,0.00
2010,08,25,05,18,0.00
2010,08,25,05,19,0.00
2010,08,25,05,20,0.00
2010,08,25,05,21,0.00
2010,08,25,05,22,0.00
2010,08,25,05,23,0.00
2010,08,25,05,24,0.00
2010,08,25,05,25,0.00
2010,08,25,05,26,0.00
2010,08,25,05,27,0.00
2010,08,25,05,28,0.00
2010,08,25,05,29,0.00
2010,08,25,05,30,0.00
2010,08,25,05,31,0.00
2010,08,25,05,32,0.00
2010,08,25,05,33,0.00
2010,08,25,05,34,0.00
2010,08,25,05,35,0.00
2010,08,25,05,36,0.00
2010,08,25,05,37,0.00
2010,08,25,05,38,0.00
2010,08,25,05,39,0.00
2010,08,25,05,40,0.00
2010,08,25,05,41,0.00
2010,08,25,05,42,0.00
2010,08,25,05,43,0.00
2010,08,25,05,44,0.00
2010,08,25,05,45,0.00
2010,08,25,05,46,0.00
2010,08,25,05,47,0.00
2010,08,25,05,48,0.00
2010,08,25,05,49,0.00
2010,08,25,05,50,0.00
2010,08,25,05,51,0.00
2010,08,25,05,52,0.00
2010,08,25,05,53,0.00
2010,08,25,05,54,0.00
2010,08,25,05,55,0.00
2010,08,25,05,56,0.00
2010,08,25,05,57,0.00
2010,08,25,05,58,0.00
2010,08,25,05,59,0.00
2010,08,25,06,00,0.00
2010,08,25,06,01,0.00
2010,08,25,06,02,0.00
2010,08,25,06,03,0.00
2010,08,25,06,04,0.00
2010,08,25,06,05,0.00
2010,08,25,06,06,0.00
2010,08,25,06,07,0.00
2010,08,25,06,08,0.00
2010,08,25,06,09,0.00
2010,08,25,06,10,0.00
2010,08,25,06,11,0.00
2010,08,25,06,12,0.00
2010,08,25,06,13,0.00
2010,08,25,06,14,0.00
2010,08,25,06,15,0.00
2010,08,25,06,16,0.00
2010,08,25,06,17,0.00
2010,08,25,06,18,0.00
2010,08,25,06,19,0.00
2010,08,25,06,20,0.00
2010,08,25,06,21,0.00
2010,08,25,06,22,0.00
2010,08,25,06,23,0.00
2010,08,25,06,24,3.70
2010,08,25,06,25,5.00
2010,08,25,06,26,5.00
2010,08,25,06,27,5.00
2010,08,25,06,28,5.00
2010,08,25,06,29,7.00
2010,08,25,06,30,7.00
2010,08,25,06,31,7.00
2010,08,25,06,32,7.00
2010,08,25,06,33,7.00
2010,08,25,06,34,9.00
2010,08,25,06,35,9.00
2010,08,25,06,36,9.00
2010,08,25,06,37,9.00
2010,08,25,06,38,9.40
2010,08,25,06,39,11.00
2010,08,25,06,40,11.00
2010,08,25,06,41,11.00
2010,08,25,06,42,11.00
2010,08,25,06,43,11.40
2010,08,25,06,44,12.00
2010,08,25,06,45,12.00
2010,08,25,06,46,12.00
2010,08,25,06,47,12.00
2010,08,25,06,48,13.60
2010,08,25,06,49,14.00
2010,08,25,06,50,14.00
2010,08,25,06,51,14.00
2010,08,25,06,52,14.00
2010,08,25,06,53,15.70
2010,08,25,06,54,16.00
2010,08,25,06,55,18.00
2010,08,25,06,56,18.00
2010,08,25,06,57,19.00
2010,08,25,06,58,19.10
2010,08,25,06,59,21.30
2010,08,25,07,00,23.30
2010,08,25,07,01,25.00
2010,08,25,07,02,25.20
2010,08,25,07,03,26.50
2010,08,25,07,04,28.60
2010,08,25,07,05,30.90
2010,08,25,07,06,32.50
2010,08,25,07,07,33.90
2010,08,25,07,08,36.00
2010,08,25,07,09,38.10
2010,08,25,07,10,39.50
2010,08,25,07,11,41.60
2010,08,25,07,12,43.70
2010,08,25,07,13,45.90
2010,08,25,07,14,46.80
2010,08,25,07,15,48.60
2010,08,25,07,16,52.40
2010,08,25,07,17,53.90
2010,08,25,07,18,56.00
2010,08,25,07,19,58.00
2010,08,25,07,20,62.00
2010,08,25,07,21,63.10
2010,08,25,07,22,65.50
2010,08,25,07,23,69.20
2010,08,25,07,24,70.80
2010,08,25,07,25,74.50
2010,08,25,07,26,76.30
2010,08,25,07,27,78.70
2010,08,25,07,28,81.80
2010,08,25,07,29,84.60
2010,08,25,07,30,86.90
2010,08,25,07,31,90.00
2010,08,25,07,32,92.50
2010,08,25,07,33,95.90
2010,08,25,07,34,97.80
2010,08,25,07,35,101.50
2010,08,25,07,36,104.10
2010,08,25,07,37,106.50
2010,08,25,07,38,110.00
2010,08,25,07,39,113.40
2010,08,25,07,40,116.00
2010,08,25,07,41,120.00
2010,08,25,07,42,122.80
2010,08,25,07,43,125.20
2010,08,25,07,44,128.30
2010,08,25,07,45,132.30
2010,08,25,07,46,134.60
2010,08,25,07,47,138.00
2010,08,25,07,48,141.30
2010,08,25,07,49,143.00
2010,08,25,07,50,146.00
2010,08,25,07,51,149.50
2010,08,25,07,52,154.60
2010,08,25,07,53,157.20
2010,08,25,07,54,160.70
2010,08,25,07,55,164.00
2010,08,25,07,56,167.90
2010,08,25,07,57,171.40
2010,08,25,07,58,173.70
2010,08,25,07,59,177.70
2010,08,25,08,00,180.20
2010,08,25,08,01,184.20
2010,08,25,08,02,186.00
2010,08,25,08,03,189.40
2010,08,25,08,04,192.70
2010,08,25,08,05,197.00
2010,08,25,08,06,199.20
2010,08,25,08,07,202.30
2010,08,25,08,08,206.10
2010,08,25,08,09,207.80
2010,08,25,08,10,211.80
2010,08,25,08,11,214.70
2010,08,25,08,12,217.60
2010,08,25,08,13,221.20
2010,08,25,08,14,223.90
2010,08,25,08,15,227.10
2010,08,25,08,16,229.60
2010,08,25,08,17,231.30
2010,08,25,08,18,234.70
2010,08,25,08,19,237.60
2010,08,25,08,20,240.60
2010,08,25,08,21,242.70
2010,08,25,08,22,245.80
2010,08,25,08,23,248.00
2010,08,25,08,24,251.00
2010,08,25,08,25,253.00
2010,08,25,08,26,256.40
2010,08,25,08,27,258.00
2010,08,25,08,28,262.00
2010,08,25,08,29,264.20
2010,08,25,08,30,267.10
2010,08,25,08,31,269.30
2010,08,25,08,32,272.30
2010,08,25,08,33,275.10
2010,08,25,08,34,278.30
2010,08,25,08,35,279.60
2010,08,25,08,36,282.40
2010,08,25,08,37,286.00
2010,08,25,08,38,288.60
2010,08,25,08,39,290.90
2010,08,25,08,40,293.40
2010,08,25,08,41,296.10
2010,08,25,08,42,299.90
2010,08,25,08,43,301.60
2010,08,25,08,44,305.40
2010,08,25,08,45,307.30
2010,08,25,08,46,310.10
2010,08,25,08,47,313.00
2010,08,25,08,48,315.00
2010,08,25,08,49,317.50
2010,08,25,08,50,321.60
2010,08,25,08,51,323.00
2010,08,25,08,52,327.10
2010,08,25,08,53,329.00
2010,08,25,08,54,330.40
2010,08,25,08,55,334.40
2010,08,25,08,56,336.80
2010,08,25,08,57,339.70
2010,08,25,08,58,342.30
2010,08,25,08,59,345.40
2010,08,25,09,00,346.70
2010,08,25,09,01,349.60
2010,08,25,09,02,353.40
2010,08,25,09,03,356.30
2010,08,25,09,04,358.00
2010,08,25,09,05,360.60
2010,08,25,09,06,363.30
2010,08,25,09,07,366.60
2010,08,25,09,08,368.90
2010,08,25,09,09,371.00
2010,08,25,09,10,374.00
2010,08,25,09,11,377.20
2010,08,25,09,12,379.70
2010,08,25,09,13,381.00
2010,08,25,09,14,383.00
2010,08,25,09,15,387.00
2010,08,25,09,16,388.30
2010,08,25,09,17,392.40
2010,08,25,09,18,394.60
2010,08,25,09,19,397.40
2010,08,25,09,20,400.30
2010,08,25,09,21,403.30
2010,08,25,09,22,404.80
2010,08,25,09,23,406.90
2010,08,25,09,24,409.60
2010,08,25,09,25,413.40
2010,08,25,09,26,416.30
2010,08,25,09,27,417.70
2010,08,25,09,28,420.90
2010,08,25,09,29,423.60
2010,08,25,09,30,424.90
2010,08,25,09,31,428.70
2010,08,25,09,32,431.00
2010,08,25,09,33,432.00
2010,08,25,09,34,436.00
2010,08,25,09,35,438.00
2010,08,25,09,36,441.00
2010,08,25,09,37,443.00
2010,08,25,09,38,445.20
2010,08,25,09,39,448.30
2010,08,25,09,40,450.30
2010,08,25,09,41,452.60
2010,08,25,09,42,455.40
2010,08,25,09,43,457.50
2010,08,25,09,44,459.80
2010,08,25,09,45,462.30
2010,08,25,09,46,464.90
2010,08,25,09,47,466.80
2010,08,25,09,48,469.40
2010,08,25,09,49,472.00
2010,08,25,09,50,475.00
2010,08,25,09,51,477.50
2010,08,25,09,52,481.20
2010,08,25,09,53,482.90
2010,08,25,09,54,484.90
2010,08,25,09,55,487.00
2010,08,25,09,56,488.60
2010,08,25,09,57,492.00
2010,08,25,09,58,494.00
2010,08,25,09,59,497.00
2010,08,25,10,00,499.00
2010,08,25,10,01,501.20
2010,08,25,10,02,504.00
2010,08,25,10,03,504.60
2010,08,25,10,04,508.30
2010,08,25,10,05,510.50
2010,08,25,10,06,513.00
2010,08,25,10,07,515.80
2010,08,25,10,08,517.90
2010,08,25,10,09,519.50
2010,08,25,10,10,522.10
2010,08,25,10,11,524.90
2010,08,25,10,12,526.50
2010,08,25,10,13,528.10
2010,08,25,10,14,531.20
2010,08,25,10,15,533.80
2010,08,25,10,16,535.70
2010,08,25,10,17,538.70
2010,08,25,10,18,541.00
2010,08,25,10,19,542.60
2010,08,25,10,20,544.60
2010,08,25,10,21,546.70
2010,08,25,10,22,550.00
2010,08,25,10,23,552.00
2010,08,25,10,24,554.10
2010,08,25,10,25,555.10
2010,08,25,10,26,557.30
2010,08,25,10,27,559.40
2010,08,25,10,28,561.50
2010,08,25,10,29,563.60
2010,08,25,10,30,566.00
2010,08,25,10,31,567.60
2010,08,25,10,32,570.50
2010,08,25,10,33,571.80
2010,08,25,10,34,575.30
2010,08,25,10,35,577.00
2010,08,25,10,36,579.20
2010,08,25,10,37,581.10
2010,08,25,10,38,583.60
2010,08,25,10,39,584.90
2010,08,25,10,40,586.90
2010,08,25,10,41,591.00
2010,08,25,10,42,591.00
2010,08,25,10,43,591.80
2010,08,25,10,44,595.40
2010,08,25,10,45,598.00
2010,08,25,10,46,599.00
2010,08,25,10,47,601.10
2010,08,25,10,48,603.10
2010,08,25,10,49,605.10
2010,08,25,10,50,606.30
2010,08,25,10,51,608.50
2010,08,25,10,52,610.70
2010,08,25,10,53,612.40
2010,08,25,10,54,613.80
2010,08,25,10,55,615.90
2010,08,25,10,56,618.10
2010,08,25,10,57,620.20
2010,08,25,10,58,621.70
2010,08,25,10,59,623.30
2010,08,25,11,00,625.60
2010,08,25,11,01,627.60
2010,08,25,11,02,628.90
2010,08,25,11,03,631.80
2010,08,25,11,04,633.00
2010,08,25,11,05,634.50
2010,08,25,11,06,636.00
2010,08,25,11,07,638.00
2010,08,25,11,08,640.00
2010,08,25,11,09,642.70
2010,08,25,11,10,643.10
2010,08,25,11,11,645.10
2010,08,25,11,12,647.30
2010,08,25,11,13,649.20
2010,08,25,11,14,650.00
2010,08,25,11,15,650.00
2010,08,25,11,16,651.00
2010,08,25,11,17,654.60
2010,08,25,11,18,656.30
2010,08,25,11,19,657.80
2010,08,25,11,20,660.20
2010,08,25,11,21,662.30
2010,08,25,11,22,663.00
2010,08,25,11,23,664.70
2010,08,25,11,24,666.00
2010,08,25,11,25,667.70
2010,08,25,11,26,669.90
2010,08,25,11,27,671.00
2010,08,25,11,28,672.50
2010,08,25,11,29,673.00
2010,08,25,11,30,677.00
2010,08,25,11,31,677.00
2010,08,25,11,32,678.80
2010,08,25,11,33,680.00
2010,08,25,11,34,679.20
2010,08,25,11,35,682.20
2010,08,25,11,36,684.30
2010,08,25,11,37,686.30
2010,08,25,11,38,687.00
2010,08,25,11,39,688.60
2010,08,25,11,40,691.00
2010,08,25,11,41,691.00
2010,08,25,11,42,692.00
2010,08,25,11,43,693.40
2010,08,25,11,44,694.00
2010,08,25,11,45,695.00
2010,08,25,11,46,697.50
2010,08,25,11,47,699.60
2010,08,25,11,48,700.00
2010,08,25,11,49,702.80
2010,08,25,11,50,703.00
2010,08,25,11,51,704.50
2010,08,25,11,52,705.00
2010,08,25,11,53,705.00
2010,08,25,11,54,707.00
2010,08,25,11,55,708.00
2010,08,25,11,56,710.00
2010,08,25,11,57,712.10
2010,08,25,11,58,714.00
2010,08,25,11,59,714.00
2010,08,25,12,00,714.20
2010,08,25,12,01,715.40
2010,08,25,12,02,717.50
2010,08,25,12,03,719.60
2010,08,25,12,04,720.10
2010,08,25,12,05,720.60
2010,08,25,12,06,722.90
2010,08,25,12,07,722.70
2010,08,25,12,08,723.30
2010,08,25,12,09,724.00
2010,08,25,12,10,725.60
2010,08,25,12,11,726.00
2010,08,25,12,12,727.40
2010,08,25,12,13,728.70
2010,08,25,12,14,729.00
2010,08,25,12,15,729.00
2010,08,25,12,16,730.70
2010,08,25,12,17,731.00
2010,08,25,12,18,733.00
2010,08,25,12,19,735.00
2010,08,25,12,20,735.10
2010,08,25,12,21,737.00
2010,08,25,12,22,737.00
2010,08,25,12,23,737.20
2010,08,25,12,24,738.00
2010,08,25,12,25,738.00
2010,08,25,12,26,738.60
2010,08,25,12,27,740.00
2010,08,25,12,28,741.00
2010,08,25,12,29,742.90
2010,08,25,12,30,744.00
2010,08,25,12,31,744.50
2010,08,25,12,32,745.00
2010,08,25,12,33,744.20
2010,08,25,12,34,744.90
2010,08,25,12,35,746.90
2010,08,25,12,36,749.00
2010,08,25,12,37,749.00
2010,08,25,12,38,749.00
2010,08,25,12,39,749.00
2010,08,25,12,40,751.00
2010,08,25,12,41,752.00
2010,08,25,12,42,752.00
2010,08,25,12,43,752.00
2010,08,25,12,44,752.00
2010,08,25,12,45,752.30
2010,08,25,12,46,754.40
2010,08,25,12,47,756.00
2010,08,25,12,48,756.00
2010,08,25,12,49,756.00
2010,08,25,12,50,756.00
2010,08,25,12,51,757.10
2010,08,25,12,52,758.00
2010,08,25,12,53,758.00
2010,08,25,12,54,758.50
2010,08,25,12,55,759.00
2010,08,25,12,56,759.00
2010,08,25,12,57,759.00
2010,08,25,12,58,759.00
2010,08,25,12,59,759.00
2010,08,25,13,00,761.00
2010,08,25,13,01,761.00
2010,08,25,13,02,761.00
2010,08,25,13,03,761.00
2010,08,25,13,04,763.00
2010,08,25,13,05,763.00
2010,08,25,13,06,763.00
2010,08,25,13,07,763.00
2010,08,25,13,08,763.30
2010,08,25,13,09,765.00
2010,08,25,13,10,765.00
2010,08,25,13,11,765.00
2010,08,25,13,12,765.00
2010,08,25,13,13,764.10
2010,08,25,13,14,763.80
2010,08,25,13,15,765.00
2010,08,25,13,16,765.50
2010,08,25,13,17,765.50
2010,08,25,13,18,765.00
2010,08,25,13,19,765.00
2010,08,25,13,20,765.00
2010,08,25,13,21,765.90
2010,08,25,13,22,766.00
2010,08,25,13,23,766.00
2010,08,25,13,24,765.20
2010,08,25,13,25,765.80
2010,08,25,13,26,766.00
2010,08,25,13,27,766.00
2010,08,25,13,28,766.00
2010,08,25,13,29,766.00
2010,08,25,13,30,765.90
2010,08,25,13,31,765.20
2010,08,25,13,32,766.00
2010,08,25,13,33,766.00
2010,08,25,13,34,766.00
2010,08,25,13,35,765.70
2010,08,25,13,36,765.30
2010,08,25,13,37,765.60
2010,08,25,13,38,765.40
2010,08,25,13,39,765.50
2010,08,25,13,40,765.00
2010,08,25,13,41,765.00
2010,08,25,13,42,765.00
2010,08,25,13,43,765.00
2010,08,25,13,44,763.10
2010,08,25,13,45,764.40
2010,08,25,13,46,765.00
2010,08,25,13,47,763.40
2010,08,25,13,48,763.00
2010,08,25,13,49,763.00
2010,08,25,13,50,763.00
2010,08,25,13,51,761.10
2010,08,25,13,52,761.00
2010,08,25,13,53,761.00
2010,08,25,13,54,761.00
2010,08,25,13,55,761.00
2010,08,25,13,56,760.30
2010,08,25,13,57,759.00
2010,08,25,13,58,759.00
2010,08,25,13,59,758.70
2010,08,25,14,00,758.40
2010,08,25,14,01,758.50
2010,08,25,14,02,757.00
2010,08,25,14,03,756.00
2010,08,25,14,04,756.00
2010,08,25,14,05,754.40
2010,08,25,14,06,754.00
2010,08,25,14,07,752.70
2010,08,25,14,08,752.00
2010,08,25,14,09,754.00
2010,08,25,14,10,752.40
2010,08,25,14,11,751.20
2010,08,25,14,12,751.00
2010,08,25,14,13,752.00
2010,08,25,14,14,750.90
2010,08,25,14,15,749.00
2010,08,25,14,16,749.00
2010,08,25,14,17,749.00
2010,08,25,14,18,748.70
2010,08,25,14,19,746.50
2010,08,25,14,20,744.70
2010,08,25,14,21,744.30
2010,08,25,14,22,744.00
2010,08,25,14,23,742.80
2010,08,25,14,24,743.10
2010,08,25,14,25,743.00
2010,08,25,14,26,741.90
2010,08,25,14,27,740.00
2010,08,25,14,28,740.00
2010,08,25,14,29,738.30
2010,08,25,14,30,738.00
2010,08,25,14,31,737.00
2010,08,25,14,32,737.00
2010,08,25,14,33,735.40
2010,08,25,14,34,735.00
2010,08,25,14,35,733.00
2010,08,25,14,36,733.00
2010,08,25,14,37,731.00
2010,08,25,14,38,730.90
2010,08,25,14,39,729.00
2010,08,25,14,40,728.80
2010,08,25,14,41,727.60
2010,08,25,14,42,726.00
2010,08,25,14,43,725.50
2010,08,25,14,44,723.40
2010,08,25,14,45,722.00
2010,08,25,14,46,722.00
2010,08,25,14,47,721.50
2010,08,25,14,48,721.00
2010,08,25,14,49,720.00
2010,08,25,14,50,719.00
2010,08,25,14,51,717.80
2010,08,25,14,52,715.30
2010,08,25,14,53,714.30
2010,08,25,14,54,714.00
2010,08,25,14,55,712.50
2010,08,25,14,56,710.40
2010,08,25,14,57,710.00
2010,08,25,14,58,708.00
2010,08,25,14,59,708.00
2010,08,25,15,00,705.20
2010,08,25,15,01,705.00
2010,08,25,15,02,704.80
2010,08,25,15,03,703.00
2010,08,25,15,04,702.60
2010,08,25,15,05,700.70
2010,08,25,15,06,699.50
2010,08,25,15,07,697.40
2010,08,25,15,08,696.00
2010,08,25,15,09,694.90
2010,08,25,15,10,694.00
2010,08,25,15,11,693.50
2010,08,25,15,12,691.90
2010,08,25,15,13,689.90
2010,08,25,15,14,690.20
2010,08,25,15,15,687.50
2010,08,25,15,16,686.30
2010,08,25,15,17,686.00
2010,08,25,15,18,684.00
2010,08,25,15,19,682.00
2010,08,25,15,20,682.00
2010,08,25,15,21,680.30
2010,08,25,15,22,677.30
2010,08,25,15,23,677.00
2010,08,25,15,24,675.00
2010,08,25,15,25,674.80
2010,08,25,15,26,672.80
2010,08,25,15,27,670.80
2010,08,25,15,28,669.60
2010,08,25,15,29,667.50
2010,08,25,15,30,666.00
2010,08,25,15,31,665.30
2010,08,25,15,32,662.80
2010,08,25,15,33,660.20
2010,08,25,15,34,659.00
2010,08,25,15,35,656.40
2010,08,25,15,36,654.00
2010,08,25,15,37,652.40
2010,08,25,15,38,623.70
2010,08,25,15,39,639.20
2010,08,25,15,40,649.00
2010,08,25,15,41,649.00
2010,08,25,15,42,645.80
2010,08,25,15,43,643.00
2010,08,25,15,44,642.10
2010,08,25,15,45,640.10
2010,08,25,15,46,638.10
2010,08,25,15,47,636.00
2010,08,25,15,48,635.90
2010,08,25,15,49,634.40
2010,08,25,15,50,630.60
2010,08,25,15,51,628.80
2010,08,25,15,52,626.70
2010,08,25,15,53,624.60
2010,08,25,15,54,625.30
2010,08,25,15,55,623.20
2010,08,25,15,56,620.80
2010,08,25,15,57,618.00
2010,08,25,15,58,615.60
2010,08,25,15,59,615.00
2010,08,25,16,00,613.20
2010,08,25,16,01,612.00
2010,08,25,16,02,609.20
2010,08,25,16,03,606.60
2010,08,25,16,04,605.20
2010,08,25,16,05,605.00
2010,08,25,16,06,601.60
2010,08,25,16,07,599.20
2010,08,25,16,08,598.00
2010,08,25,16,09,596.00
2010,08,25,16,10,593.90
2010,08,25,16,11,591.90
2010,08,25,16,12,590.70
2010,08,25,16,13,588.40
2010,08,25,16,14,584.80
2010,08,25,16,15,583.40
2010,08,25,16,16,581.40
2010,08,25,16,17,579.40
2010,08,25,16,18,577.60
2010,08,25,16,19,575.30
2010,08,25,16,20,572.00
2010,08,25,16,21,569.40
2010,08,25,16,22,568.00
2010,08,25,16,23,566.80
2010,08,25,16,24,564.70
2010,08,25,16,25,563.30
2010,08,25,16,26,561.60
2010,08,25,16,27,559.50
2010,08,25,16,28,555.80
2010,08,25,16,29,554.20
2010,08,25,16,30,552.20
2010,08,25,16,31,548.20
2010,08,25,16,32,548.00
2010,08,25,16,33,546.70
2010,08,25,16,34,542.80
2010,08,25,16,35,538.60
2010,08,25,16,36,519.80
2010,08,25,16,37,535.60
2010,08,25,16,38,533.20
2010,08,25,16,39,531.00
2010,08,25,16,40,529.60
2010,08,25,16,41,526.50
2010,08,25,16,42,525.10
2010,08,25,16,43,523.10
2010,08,25,16,44,520.50
2010,08,25,16,45,517.90
2010,08,25,16,46,515.80
2010,08,25,16,47,515.00
2010,08,25,16,48,515.00
2010,08,25,16,49,510.10
2010,08,25,16,50,506.50
2010,08,25,16,51,503.00
2010,08,25,16,52,499.60
2010,08,25,16,53,499.00
2010,08,25,16,54,496.20
2010,08,25,16,55,494.10
2010,08,25,16,56,491.90
2010,08,25,16,57,489.70
2010,08,25,16,58,486.70
2010,08,25,16,59,484.70
2010,08,25,17,00,482.40
2010,08,25,17,01,479.40
2010,08,25,17,02,477.10
2010,08,25,17,03,475.00
2010,08,25,17,04,471.20
2010,08,25,17,05,460.80
2010,08,25,17,06,458.30
2010,08,25,17,07,465.00
2010,08,25,17,08,462.90
2010,08,25,17,09,461.40
2010,08,25,17,10,459.30
2010,08,25,17,11,456.20